Location: Goettingen
(51.5300°N, 9.9433°E)
Time: 11:38:38
(UTC+02:00)

ISS - Pass Details

Date: 17 May 2025
Orbit: 416 x 419 km, 51.6° (Epoch: 18 May)

Event Time Altitude Azimuth Distance (km) Brightness Sun altitude
Rises 00:38:20 0° 284° (WNW) 2,362 0.4 -18.6°
Reaches altitude 10° 00:40:31 10° 276° (W) 1,496 -0.8 -18.7°
Enters shadow 00:42:30 27° 250° (WSW) 828 -2.4 -18.7°
